Showing default

NUSAT-47, 66743

Orbit data source: Space-Track

NUSAT-47, 66743 is a payload satellite owned by URUGUS S.A. (AR) in SSO that was launched on Fri, 28 Nov 2025 UTC via an FALCON 9 launch vehicle from the Air Force Western Test Range (AFWTR). Payload-class satellites include a variety of spacecraft equipped with specific instruments for various scientific and technological missions. These include communications satellites like Starlink; space stations such as the ISS; scientific satellites like the Hubble; Earth observation satellites from companies like Planet Labs, Umbra, and HawkEye 360; GPS; miniature CubeSats for education and research; and military/defense satellites.

Loading next visibility...
Identifier
66743, 2025-276CF
Orbit
SSO
Country
Flag of ARAR / ARGN
Related business
Manufacturer
URUGUS S.A.
Mission
Operational Commercial Imaging
Bus & Motor
NEWSAT V, Unknown motor
Mass
41.5 kg wet, 38.5 kg dry
Launch date (UTC)
2025-11-28 (6 months ago)
Launch vehicle
FALCON 9
Launch site
Air Force Western Test Range (AFWTR)
Object type
Payload
Rocket body
Debris
Shape & HBR
Box, 0.4 m
Radar Cross Section
0.542 m²

Expand to show TLE details & history
Last TLE update: 1 day ago

TLE from 1 day ago
0 NUSAT-47
1 66743U 25276CF  26144.13825766  .00004928  00000-0  23203-3 0  9999
2 66743  97.4191 218.1405 0003428  94.1538 266.0088 15.19982593 26771
Epoch: 2026-05-24T03:19Z
TLE epoch observation values (Epoch: 2026-05-24T03:19:05.461Z)
Latitude
-0.00014°
Longitude
-73.37694°
Altitude
509.148 km
Speed
7.609 km/s
True Right ascension
14h 32m 33s
True Declination
0° 00' 00"
Sunlit
Object was in full shadow at epoch
Visualization orbit readout
Latitude
Unknown
Longitude
Unknown
Altitude
Unknown
Speed
Unknown
Apparent Right ascension
Unknown
Apparent Declination
Unknown
Sunlit
N/A
Visualization observer readout
Local Sidereal Time
13:37:50
Azimuth
Unknown
Elevation
Unknown
Doppler factor
Unknown
Orbital elements
Apogee altitude
505.218 km
Perigee altitude
500.501 km
Semi-major axis
6,880.997 km
Eccentricity
0.00034
Inclination
97.4191°
RAAN
218.1405°
Arg. of periapsis
94.1538°
True anomaly
265.96961°
Mean anomaly
266.0088°
Eccentric anomaly
265.98921°
Mean motion
3.80247 °/min
Orbital period
94.68 mins
BSTAR
0.00023203
Loading maneuver chart data...
Computing Atmospheric mass density...
Loading historical data...
Loading historical data...
Loading historical data...
Loading historical data...
Loading historical data...
Loading historical data...
Loading historical data...

Documentation

Showing up to 5 results
|